| time (UTC) | temp C | wind direction | speed KPH | gust KPH | rain 1hr cm | rain 24hr cm | rain mn cm | humidity % | barometer mb |
| 20260902092616 | 17 | 134 | 3.2 | 4.8 | 0.00 | 0.03 | 0.03 | 88 | 1017.7 |
| 20260902091616 | 17 | 110 | 4.8 | 4.8 | 0.00 | 0.03 | 0.03 | 88 | 1017.8 |
| 20260902090617 | 17 | 120 | 4.8 | 4.8 | 0.00 | 0.03 | 0.03 | 88 | 1017.9 |
| 20260902085616 | 17 | 114 | 1.6 | 3.2 | 0.00 | 0.03 | 0.03 | 88 | 1018.1 |
| 20260902084617 | 17 | 106 | 1.6 | 3.2 | 0.00 | 0.03 | 0.03 | 88 | 1018.1 |
| 20260902083617 | 17 | 121 | 3.2 | 4.8 | 0.00 | 0.03 | 0.03 | 88 | 1018.0 |
| 20260902082616 | 17 | 114 | 3.2 | 6.4 | 0.00 | 0.03 | 0.03 | 87 | 1017.9 |
| 20260902081636 | 17 | 127 | 3.2 | 4.8 | 0.00 | 0.03 | 0.03 | 90 | 1017.9 |
| 20260902080616 | 17 | 112 | 3.2 | 4.8 | 0.00 | 0.03 | 0.03 | 90 | 1018.0 |
| 20260902075636 | 17 | 112 | 4.8 | 4.8 | 0.00 | 0.03 | 0.03 | 90 | 1018.1 |
| 20260902074616 | 17 | 117 | 3.2 | 4.8 | 0.00 | 0.03 | 0.03 | 91 | 1018.0 |
| 20260902073616 | 18 | 110 | 1.6 | 3.2 | 0.00 | 0.03 | 0.03 | 92 | 1018.3 |
| 20260902072616 | 18 | 92 | 1.6 | 3.2 | 0.00 | 0.03 | 0.03 | 95 | 1018.3 |
| 20260902071616 | 19 | 115 | 1.6 | 3.2 | 0.00 | 0.03 | 0.03 | 95 | 1018.3 |
| 20260902070616 | 19 | 139 | 0.0 | 1.6 | 0.03 | 0.03 | 0.03 | 95 | 1018.2 |
| 20260902065616 | 19 | 139 | 0.0 | 1.6 | 0.03 | 0.03 | 0.03 | 95 | 1018.3 |
| 20260902064616 | 19 | 117 | 1.6 | 1.6 | 0.03 | 0.03 | 0.03 | 95 | 1018.1 |
| 20260902063636 | 20 | 111 | 0.0 | 1.6 | 0.03 | 0.03 | 0.03 | 95 | 1018.2 |
| 20260902062617 | 20 | 113 | 0.0 | 1.6 | 0.03 | 0.03 | 0.03 | 95 | 1018.1 |
| 20260902060616 | 20 | 33 | 0.0 | 3.2 | 0.00 | 0.00 | 0.00 | 96 | 1017.9 |
| 20260902055616 | 20 | 114 | 0.0 | 1.6 | 0.00 | 0.00 | 0.00 | 96 | 1017.6 |
| 20260902054616 | 20 | 0.0 | 0.0 | 0.00 | 0.00 | 0.00 | 95 | 1017.6 | |
| 20260902053636 | 20 | 0.0 | 0.0 | 0.00 | 0.00 | 0.00 | 94 | 1017.7 | |
| 20260902052616 | 20 | 0.0 | 0.0 | 0.00 | 0.00 | 0.00 | 94 | 1017.6 | |
| 20260902051616 | 20 | 0.0 | 0.0 | 0.00 | 0.00 | 0.00 | 94 | 1017.6 | |
| 20260902050616 | 20 | 0.0 | 0.0 | 0.00 | 0.00 | 0.00 | 93 | 1017.4 | |
| 20260902045617 | 21 | 0.0 | 0.0 | 0.00 | 0.00 | 0.00 | 93 | 1017.3 | |
| 20260902044616 | 21 | 351 | 0.0 | 3.2 | 0.00 | 0.00 | 0.00 | 92 | 1017.3 |
| 20260902043616 | 21 | 0.0 | 0.0 | 0.00 | 0.00 | 0.00 | 92 | 1017.3 | |
| 20260902042656 | 21 | 0.0 | 0.0 | 0.00 | 0.00 | 0.00 | 92 | 1017.1 | |
| 20260902041616 | 21 | 0.0 | 1.6 | 0.00 | 0.00 | 0.00 | 91 | 1017.1 | |
| 20260902040616 | 21 | 0.0 | 1.6 | 0.00 | 0.00 | 0.00 | 91 | 1017.1 | |
| 20260902035636 | 21 | 213 | 3.2 | 6.4 | 0.00 | 0.00 | 0.00 | 91 | 1017.0 |
| 20260902034636 | 21 | 206 | 1.6 | 4.8 | 0.00 | 0.00 | 0.00 | 91 | 1017.0 |
| 20260902033636 | 21 | 204 | 6.4 | 9.7 | 0.00 | 0.00 | 0.00 | 91 | 1016.9 |
| 20260902032616 | 21 | 219 | 4.8 | 9.7 | 0.00 | 0.00 | 0.00 | 91 | 1017.0 |
| 20260902031616 | 21 | 224 | 6.4 | 12.9 | 0.00 | 0.00 | 0.00 | 91 | 1016.9 |
| 20260902030636 | 22 | 223 | 4.8 | 9.7 | 0.00 | 0.00 | 0.00 | 91 | 1016.7 |
| 20260902025616 | 22 | 223 | 6.4 | 8.0 | 0.00 | 0.00 | 0.00 | 92 | 1016.8 |
| 20260902024616 | 22 | 204 | 4.8 | 8.0 | 0.00 | 0.00 | 0.00 | 91 | 1016.7 |
| 20260902023636 | 22 | 212 | 6.4 | 8.0 | 0.00 | 0.00 | 0.00 | 90 | 1016.6 |
| 20260902022636 | 22 | 219 | 3.2 | 9.7 | 0.00 | 0.00 | 0.00 | 87 | 1016.8 |
| 20260902021616 | 22 | 242 | 6.4 | 14.5 | 0.00 | 0.00 | 0.00 | 89 | 1016.6 |
| 20260902020656 | 21 | 208 | 4.8 | 8.0 | 0.00 | 0.00 | 0.00 | 91 | 1016.6 |
| 20260902015636 | 21 | 192 | 4.8 | 8.0 | 0.00 | 0.00 | 0.00 | 91 | 1016.7 |
| 20260902014636 | 21 | 210 | 6.4 | 8.0 | 0.00 | 0.00 | 0.00 | 90 | 1016.8 |
| 20260902013616 | 22 | 217 | 6.4 | 12.9 | 0.00 | 0.00 | 0.00 | 89 | 1016.8 |
| 20260902012616 | 22 | 229 | 4.8 | 11.3 | 0.00 | 0.00 | 0.00 | 89 | 1016.8 |
| 20260902011636 | 22 | 269 | 3.2 | 4.8 | 0.00 | 0.00 | 0.00 | 91 | 1016.8 |
| 20260902010616 | 22 | 198 | 4.8 | 8.0 | 0.00 | 0.00 | 0.00 | 90 | 1016.8 |
| 20260902005616 | 22 | 211 | 3.2 | 9.7 | 0.00 | 0.00 | 0.00 | 91 | 1016.9 |
| 20260902004616 | 21 | 211 | 6.4 | 14.5 | 0.00 | 0.00 | 0.00 | 91 | 1016.9 |
| 20260902003616 | 22 | 226 | 3.2 | 6.4 | 0.00 | 0.00 | 0.00 | 91 | 1016.9 |
| 20260902002736 | 22 | 217 | 4.8 | 14.5 | 0.00 | 0.00 | 0.00 | 89 | 1017.0 |
| 20260902001616 | 23 | 208 | 8.0 | 16.1 | 0.00 | 0.00 | 0.00 | 87 | 1017.0 |
| 20260902000616 | 23 | 232 | 8.0 | 11.3 | 0.00 | 0.00 | 0.00 | 87 | 1017.0 |
| 20260901235616 | 23 | 216 | 9.7 | 16.1 | 0.00 | 0.00 | 0.00 | 86 | 1016.9 |
| 20260901234616 | 24 | 271 | 4.8 | 8.0 | 0.00 | 0.00 | 0.00 | 86 | 1017.0 |
| 20260901233616 | 25 | 235 | 8.0 | 19.3 | 0.00 | 0.00 | 0.00 | 81 | 1016.9 |
| 20260901232617 | 25 | 240 | 4.8 | 12.9 | 0.00 | 0.00 | 0.00 | 82 | 1017.1 |
| 20260901231616 | 25 | 235 | 6.4 | 12.9 | 0.00 | 0.00 | 0.00 | 82 | 1017.2 |
| 20260901230616 | 25 | 231 | 8.0 | 14.5 | 0.00 | 0.00 | 0.00 | 80 | 1017.3 |
| 20260901225616 | 25 | 228 | 4.8 | 9.7 | 0.00 | 0.00 | 0.00 | 83 | 1017.3 |
| 20260901224616 | 25 | 234 | 3.2 | 8.0 | 0.00 | 0.00 | 0.00 | 85 | 1017.3 |
| 20260901223616 | 24 | 236 | 3.2 | 11.3 | 0.00 | 0.00 | 0.00 | 82 | 1017.4 |
| 20260901222616 | 25 | 255 | 3.2 | 6.4 | 0.00 | 0.00 | 0.00 | 85 | 1017.4 |
| 20260901221616 | 24 | 270 | 1.6 | 9.7 | 0.00 | 0.00 | 0.00 | 87 | 1017.4 |
| 20260901220616 | 23 | 246 | 3.2 | 9.7 | 0.00 | 0.00 | 0.00 | 86 | 1017.4 |
| 20260901215616 | 24 | 227 | 3.2 | 8.0 | 0.00 | 0.00 | 0.00 | 86 | 1017.6 |
| 20260901214636 | 24 | 228 | 6.4 | 11.3 | 0.00 | 0.00 | 0.00 | 84 | 1017.7 |
| 20260901213636 | 23 | 216 | 3.2 | 8.0 | 0.00 | 0.00 | 0.00 | 85 | 1017.8 |
| 20260901212616 | 23 | 235 | 4.8 | 9.7 | 0.00 | 0.00 | 0.00 | 84 | 1018.0 |
| 20260901211616 | 22 | 208 | 4.8 | 9.7 | 0.00 | 0.00 | 0.00 | 87 | 1018.2 |
| 20260901210616 | 22 | 215 | 3.2 | 11.3 | 0.00 | 0.00 | 0.00 | 85 | 1018.2 |
| 20260901205616 | 23 | 206 | 4.8 | 8.0 | 0.00 | 0.00 | 0.00 | 85 | 1018.3 |
| 20260901204616 | 23 | 230 | 1.6 | 8.0 | 0.00 | 0.00 | 0.00 | 85 | 1018.3 |
| 20260901203616 | 23 | 234 | 1.6 | 8.0 | 0.00 | 0.00 | 0.00 | 83 | 1018.2 |
| 20260901202616 | 23 | 184 | 1.6 | 6.4 | 0.00 | 0.00 | 0.00 | 84 | 1018.4 |
| 20260901201636 | 23 | 291 | 1.6 | 3.2 | 0.00 | 0.00 | 0.00 | 83 | 1018.6 |
| 20260901200636 | 23 | 328 | 3.2 | 6.4 | 0.00 | 0.00 | 0.00 | 85 | 1018.7 |
| 20260901195616 | 22 | 280 | 1.6 | 1.6 | 0.00 | 0.00 | 0.00 | 86 | 1018.6 |
| 20260901194636 | 22 | 230 | 4.8 | 9.7 | 0.00 | 0.00 | 0.00 | 82 | 1018.8 |
| 20260901193616 | 23 | 300 | 1.6 | 3.2 | 0.00 | 0.00 | 0.00 | 85 | 1019.0 |
| 20260901192616 | 23 | 284 | 3.2 | 4.8 | 0.00 | 0.00 | 0.00 | 81 | 1019.0 |
| 20260901191616 | 22 | 231 | 1.6 | 3.2 | 0.00 | 0.00 | 0.00 | 85 | 1018.8 |
| 20260901190616 | 22 | 129 | 1.6 | 3.2 | 0.00 | 0.00 | 0.00 | 84 | 1018.6 |
| 20260901185636 | 22 | 237 | 1.6 | 4.8 | 0.00 | 0.00 | 0.00 | 87 | 1018.8 |
| 20260901184616 | 21 | 312 | 0.0 | 1.6 | 0.00 | 0.00 | 0.00 | 84 | 1018.7 |
| 20260901183636 | 22 | 345 | 1.6 | 3.2 | 0.00 | 0.00 | 0.00 | 85 | 1018.7 |
| 20260901182616 | 21 | 0.0 | 0.0 | 0.00 | 0.00 | 0.00 | 80 | 1018.6 | |
| 20260901181616 | 20 | 177 | 1.6 | 3.2 | 0.00 | 0.00 | 0.00 | 81 | 1018.7 |
| 20260901180616 | 19 | 232 | 0.0 | 1.6 | 0.00 | 0.00 | 0.00 | 85 | 1018.6 |
| 20260901175616 | 18 | 99 | 0.0 | 1.6 | 0.00 | 0.00 | 0.00 | 83 | 1018.5 |
| 20260901174616 | 18 | 45 | 0.0 | 1.6 | 0.00 | 0.00 | 0.00 | 86 | 1018.6 |
| 20260901173616 | 18 | 123 | 0.0 | 3.2 | 0.00 | 0.00 | 0.00 | 85 | 1018.6 |
| 20260901172616 | 17 | 33 | 3.2 | 8.0 | 0.00 | 0.00 | 0.00 | 86 | 1018.4 |
| 20260901171616 | 17 | 100 | 3.2 | 4.8 | 0.00 | 0.00 | 0.00 | 87 | 1018.1 |
| 20260901170616 | 17 | 133 | 3.2 | 4.8 | 0.00 | 0.00 | 0.00 | 90 | 1018.2 |
| 20260901165616 | 16 | 8 | 0.0 | 3.2 | 0.00 | 0.00 | 0.00 | 89 | 1018.0 |
| 20260901164616 | 16 | 125 | 1.6 | 3.2 | 0.00 | 0.00 | 0.00 | 88 | 1018.2 |
| 20260901163616 | 16 | 109 | 4.8 | 4.8 | 0.00 | 0.00 | 0.00 | 85 | 1018.1 |
| 20260901162616 | 16 | 100 | 3.2 | 4.8 | 0.00 | 0.00 | 0.00 | 86 | 1017.9 |
| 20260901161616 | 16 | 87 | 1.6 | 3.2 | 0.00 | 0.00 | 0.00 | 86 | 1018.0 |
| 20260901160616 | 16 | 41 | 3.2 | 6.4 | 0.00 | 0.00 | 0.00 | 86 | 1017.8 |
| 20260901155616 | 16 | 135 | 4.8 | 6.4 | 0.00 | 0.00 | 0.00 | 86 | 1017.7 |
| 20260901154616 | 16 | 112 | 1.6 | 4.8 | 0.00 | 0.00 | 0.00 | 88 | 1017.7 |
| 20260901153616 | 16 | 104 | 1.6 | 4.8 | 0.00 | 0.00 | 0.00 | 89 | 1017.7 |
| 20260901152616 | 16 | 123 | 4.8 | 6.4 | 0.00 | 0.00 | 0.00 | 89 | 1017.6 |
| 20260901151616 | 16 | 96 | 3.2 | 4.8 | 0.00 | 0.00 | 0.00 | 90 | 1017.4 |
| 20260901150616 | 16 | 50 | 1.6 | 3.2 | 0.00 | 0.00 | 0.00 | 88 | 1017.4 |
| 20260901145616 | 16 | 111 | 3.2 | 3.2 | 0.00 | 0.00 | 0.00 | 88 | 1017.1 |
| 20260901144616 | 16 | 111 | 1.6 | 3.2 | 0.00 | 0.00 | 0.00 | 89 | 1017.0 |
| 20260901143616 | 16 | 110 | 3.2 | 4.8 | 0.00 | 0.00 | 0.00 | 88 | 1017.1 |
| 20260901142616 | 16 | 106 | 3.2 | 4.8 | 0.00 | 0.00 | 0.00 | 88 | 1016.9 |
| 20260901141616 | 16 | 104 | 3.2 | 3.2 | 0.00 | 0.00 | 0.00 | 89 | 1017.0 |
| 20260901140616 | 16 | 107 | 3.2 | 4.8 | 0.00 | 0.00 | 0.00 | 90 | 1016.9 |
| 20260901135616 | 15 | 107 | 3.2 | 3.2 | 0.00 | 0.00 | 0.00 | 90 | 1017.0 |
| 20260901134616 | 15 | 122 | 0.0 | 3.2 | 0.00 | 0.00 | 0.00 | 89 | 1017.0 |
| 20260901133616 | 16 | 118 | 3.2 | 3.2 | 0.00 | 0.00 | 0.00 | 88 | 1016.9 |
| 20260901132616 | 16 | 111 | 1.6 | 4.8 | 0.00 | 0.00 | 0.00 | 88 | 1017.1 |
| 20260901131616 | 16 | 42 | 1.6 | 3.2 | 0.00 | 0.00 | 0.00 | 88 | 1017.3 |
| 20260901130616 | 16 | 117 | 1.6 | 3.2 | 0.00 | 0.00 | 0.00 | 89 | 1017.2 |
| 20260901125616 | 16 | 108 | 3.2 | 4.8 | 0.00 | 0.00 | 0.00 | 90 | 1017.3 |
| 20260901124616 | 16 | 111 | 3.2 | 4.8 | 0.00 | 0.00 | 0.00 | 90 | 1017.6 |
| 20260901123616 | 16 | 104 | 1.6 | 4.8 | 0.00 | 0.00 | 0.00 | 90 | 1017.5 |
| 20260901122616 | 16 | 101 | 3.2 | 4.8 | 0.00 | 0.00 | 0.00 | 89 | 1017.7 |
| 20260901121616 | 16 | 124 | 3.2 | 3.2 | 0.00 | 0.00 | 0.00 | 89 | 1017.7 |
| 20260901120616 | 16 | 85 | 1.6 | 3.2 | 0.00 | 0.00 | 0.00 | 89 | 1017.9 |
| 20260901115616 | 16 | 98 | 3.2 | 3.2 | 0.00 | 0.00 | 0.00 | 89 | 1018.1 |
| 20260901114616 | 16 | 110 | 3.2 | 4.8 | 0.00 | 0.00 | 0.00 | 89 | 1018.0 |
| 20260901113616 | 16 | 115 | 3.2 | 4.8 | 0.00 | 0.00 | 0.00 | 88 | 1018.2 |
| 20260901112616 | 16 | 95 | 3.2 | 6.4 | 0.00 | 0.00 | 0.00 | 88 | 1018.1 |
| 20260901111616 | 16 | 112 | 1.6 | 3.2 | 0.00 | 0.00 | 0.00 | 88 | 1018.3 |
| 20260901110616 | 16 | 107 | 3.2 | 4.8 | 0.00 | 0.00 | 0.00 | 88 | 1018.5 |
| 20260901105636 | 16 | 102 | 3.2 | 4.8 | 0.00 | 0.00 | 0.00 | 90 | 1018.5 |
| 20260901104616 | 16 | 103 | 1.6 | 3.2 | 0.00 | 0.00 | 0.00 | 91 | 1018.5 |
| 20260901103616 | 16 | 117 | 0.0 | 3.2 | 0.00 | 0.00 | 0.00 | 90 | 1018.6 |
| 20260901102616 | 16 | 109 | 1.6 | 3.2 | 0.00 | 0.00 | 0.00 | 90 | 1018.6 |
| 20260901101616 | 16 | 120 | 1.6 | 3.2 | 0.00 | 0.00 | 0.00 | 90 | 1018.7 |
| 20260901100656 | 16 | 101 | 3.2 | 4.8 | 0.00 | 0.00 | 0.00 | 89 | 1018.8 |
| 20260901095636 | 16 | 110 | 3.2 | 3.2 | 0.00 | 0.00 | 0.00 | 89 | 1018.9 |
| 20260901094636 | 17 | 107 | 1.6 | 3.2 | 0.00 | 0.00 | 0.00 | 90 | 1018.9 |
| 20260901093636 | 17 | 127 | 3.2 | 3.2 | 0.00 | 0.00 | 0.00 | 91 | 1018.9 |